Flag for Kuwait Weather past 2 weeks in Kuwait City, Kuwait

Now
63 °F

Clear.


Feels Like: 63 °F
Forecast: 53 / 66 °F
Wind: 12 mph from North

Location: Kuwait International Airport

Current Time: Dec 21, 2014 at 8:24:58 PM

Latest Report: Dec 21, 2014 at 8:00 PM


Visibility: 10 mi

Pressure: 30.01 "Hg

Humidity: 59%

Dew point: 48 °F

Location of Kuwait CityLocation

Historic Weather in Kuwait City — Graph

°F

Kuwait City temperature yesterday

Maximum temperature yesterday: 79 °F (at 1:00 PM)
Minimum temperature yesterday: 54 °F (at 7:00 AM)
Average temperature yesterday: 65 °F

Past Weeks' High & Low Weather Summary

 TemperatureHumidityPressure
High79 °F (Dec 8, 1:00 PM)100% (Dec 9, 7:00 AM)30.30 "Hg (Dec 9, 7:00 AM)
Low43 °F (Dec 13, 6:00 AM)21% (Dec 13, 1:00 PM)29.92 "Hg (Dec 21, 2:00 AM)
Average62 °F69%30.13 "Hg
* Reported Dec 6 7:00 PM — Dec 21 7:00 PM, Kuwait City, Weather by CustomWeather, © 2014

Note: Actual official high and low records may vary slightly from our data, if they occured in-between our weather recording intervals... More about our weather records

Advertising

Kuwait City weather history for previous 24 hours

 ConditionsComfort  
Time TempWeatherWind HumidityBarometerVisibility
7:00 PM
Dec 21
64 °FClear.13 mph56%30.01 "Hg10 mi
6:00 PM66 °FPassing clouds.14 mph52%29.98 "Hg5 mi
5:00 PM66 °FPassing clouds.15 mph49%29.98 "Hg5 mi
4:00 PM66 °FPartly sunny.18 mph46%29.95 "Hg4 mi
3:00 PM68 °FPartly sunny.21 mph46%29.95 "Hg4 mi
2:00 PM66 °FPartly sunny.18 mph49%29.95 "Hg4 mi
1:00 PM68 °FPartly sunny.20 mph49%29.95 "Hg4 mi
12:00 PM66 °FPartly sunny.18 mph56%29.95 "Hg4 mi
11:00 AM66 °FPartly sunny.15 mph56%29.98 "Hg4 mi
10:00 AM64 °FPartly sunny.15 mph60%30.01 "Hg3 mi
9:00 AM63 °FBroken clouds.13 mph64%30.01 "Hg2 mi
8:00 AM61 °FBroken clouds.15 mph72%29.98 "Hg2 mi
7:00 AM61 °FPartly sunny.13 mph72%29.98 "Hg3 mi
6:00 AM61 °FClear.13 mph68%29.95 "Hg4 mi
5:00 AM61 °FClear.No wind59%29.95 "Hg10 mi
4:00 AM61 °FClear.3 mph63%29.95 "Hg10 mi
3:00 AM63 °FClear.14 mph64%29.95 "Hg5 mi
2:00 AM64 °FClear.18 mph64%29.92 "Hg4 mi
1:00 AM66 °FLow level haze.21 mph68%29.95 "Hg4 mi
12:00 AM68 °FClear.16 mph69%29.98 "Hg10 mi
11:00 PM
Dec 20
68 °FClear.16 mph64%29.98 "Hg10 mi
10:00 PM68 °FClear.18 mph69%29.98 "Hg10 mi
9:00 PM66 °FClear.10 mph68%30.01 "Hg10 mi
8:00 PM68 °FClear.12 mph69%30.01 "Hg10 mi
Weather by CustomWeather, © 2014

See weather overviewHow to use our weather pages